Regional Weather Roundup
Issued by NWS Cleveland, OH

Home | Current Version | Previous Version | Graphics & Text | Print | Product List | Glossary On
Versions: 1 2 3 4 5 6 7 8 9 10 11 12 13 14 15 16 17 18 19 20 21 22 23 24 25 26 27 28 29 30 31 32 33 34 35 36 37 38 39 40 41 42 43 44 45 46 47 48 49 50
000
ASUS41 KCLE 232202
RWRCLE
OHIO REGIONAL WEATHER ROUNDUP
NATIONAL WEATHER SERVICE CLEVELAND, OH
600 PM EDT SUN JUL 23 2017

NOTE: "FAIR" INDICATES FEW OR NO CLOUDS BELOW 12,000 FEET WITH NO
SIGNIFICANT WEATHER AND/OR OBSTRUCTIONS TO VISIBILITY.

OHZ001>008-015>018-024>027-034-035-043-044-232300-
   NORTHWEST OHIO

CITY           SKY/WX    TMP DP  RH WIND       PRES   REMARKS
DEFIANCE       PTSUNNY  N/A N/A N/A CALM      29.76F
FINDLAY        FAIR      85  68  56 W8        29.75R
TOLEDO EXPRESS FAIR      70  69  97 CALM      29.75F
TOLEDO EXEC    LGT RAIN  72  70  93 E5        29.77F
LIMA           FAIR      82  74  76 VRB6      29.77S
$$

OHZ009>014-019>023-028>033-038-089-232300-
   NORTHEAST OHIO

CITY           SKY/WX    TMP DP  RH WIND       PRES   REMARKS
CLE-HOPKINS    PTSUNNY   83  67  58 VRB5      29.76F
CLE-LAKEFRONT  PTSUNNY   79  68  69 VRB3      29.73F
CUY CO. ARPT   MOSUNNY   81  64  57 NW7       29.76F
LORAIN-ELYRIA  FAIR      81  65  58 VRB3      29.75F
ASHTABULA      FAIR      76  69  79 NW6       29.76F
AKRON-CANTON   PTSUNNY   83  68  60 CALM      29.75S
WOOSTER        FAIR      81  70  69 N6        29.77S
MANSFIELD      FAIR      84  71  65 VRB6      29.77F
YOUNGSTOWN     PTSUNNY   80  70  71 N9        29.75F THUNDER
$$

OHZ042-051>053-060>062-070>072-077>081-232300-
  SOUTHWEST OHIO

CITY           SKY/WX    TMP DP  RH WIND       PRES   REMARKS
CINC-COVINGTON FAIR      85  73  67 SW9       29.81S HX  91
CINC-LUNKEN    FAIR      85  72  65 W8        29.80R HX  91
HAMILTON       PTSUNNY   84  74  71 W12G18    29.80S HX  91
DAYTON         TSTM      75  72  90 N13G24    29.80S FOG
WRIGHT-PAT AFB PTSUNNY   82  74  77 SW9       29.78S
DAYTON GENERAL FAIR      84  71  65 W12G20    29.79S
WILMINGTON     FAIR      81  75  82 SW13      29.80S
$$

OHZ036-037-039>041-045>050-054>059-063>069-073>076-082>088-232300-
  CENTRAL AND SOUTHEAST OHIO

CITY           SKY/WX    TMP DP  RH WIND       PRES   REMARKS
COLUMBUS       LGT RAIN  78  74  87 S10       29.78F
OSU AIRPORT    PTSUNNY   79  72  79 S9        29.77F
BOLTON FIELD   CLOUDY    79  75  89 S9        29.79F
RICKENBACK AFB LGT RAIN  77  72  84 SW9       29.79S
NEWARK         FAIR      81  69  67 SW10      29.77F
MARION         FAIR      79  71  76 NW5       29.77F
LANCASTER      PTSUNNY   76  70  82 SW10      29.80S
ZANESVILLE     PTSUNNY   80  71  74 SW10      29.78S
NEW PHILLY     NOT AVBL
$$



USA.gov is the U.S. government's official web portal to all federal, state and local government web resources and services.